sat.trackr.live / text

‹ back to catalog

STARLINK-31363

NORAD 59782 · 2024-093A

PAYLOAD ACTIVE UNKNOWN

§ Identity

Operator
Country
US
Launch date
2024-05-18
Launch site
AFETR
Launch vehicle
Mass (kg)
RCS (m²)

Purposes: comms

External: N2YO · Heavens-Above · Gunter

§ Orbital elements

Epoch: 2026-09-21T11:13:34.044096Z

Period
94.27 min
Inclination
43.0011°
Eccentricity
0.0000990
Mean motion
15.27578805 rev/d
Perigee alt
482.4 km
Apogee alt
483.7 km
Semi-major
6,861.2 km
B*
5.4961e-6
RAAN
180.0373°
Arg perigee
271.5960°
Mean anomaly
88.4779°
Rev number
13,267

§ Raw data

STARLINK-313631 59782U 24093A   26264.46775514 -.00000111  00000+0  54961-5 0  99912 59782  43.0011 180.0373 0000990 271.5960  88.4779 15.27578805132672

JSON: /api/v1/satellites/59782 · /tle

For live sub-satellite position, see the globe view (requires WebGL).

§ Visibility from observer

Set your observer location to see the next 7 days of passes ≥ 10°. The values pass through the URL so the page stays shareable.

No JS? Fill the form by hand. The geolocation button needs JavaScript.